Flag for Australia Weather past 2 weeks in Hobart, Tasmania, Australia

Now
52 °F

Partly sunny.


Feels Like: 48 °F
Forecast: 35 / 52 °F
Wind: 10 mph from Northwest

Location: Hobart Airport

Current Time: Sep 2, 2015 at 12:52:25 PM

Latest Report: Sep 2, 2015 at 12:00 PM


Visibility: N/A

Pressure: 29.83 "Hg

Humidity: 62%

Dew point: 39 °F

Location of HobartLocation

Historic Weather in Hobart — Graph

°F

Hobart temperature yesterday

Maximum temperature yesterday: 52 °F (at 1:30 PM)
Minimum temperature yesterday: 39 °F (at 9:00 PM)
Average temperature yesterday: 46 °F

Past Weeks' High & Low Weather Summary

 TemperatureHumidityPressure
High64 °F (Aug 21, 1:00 PM)100% (Aug 31, 3:30 AM)30.45 "Hg (Aug 31, 3:30 AM)
Low34 °F (Aug 20, 7:00 AM)38% (Aug 24, 2:00 PM)29.65 "Hg (Aug 22, 3:30 AM)
Average46 °F74%30.15 "Hg
* Reported Aug 18 11:00 AM — Sep 2 11:30 AM, Hobart, Weather by CustomWeather, © 2015

Note: Actual official high and low records may vary slightly from our data, if they occured in-between our weather recording intervals... More about our weather records

Advertising

Hobart weather history for previous 24 hours

 ConditionsComfort  
Time TempWeatherWind HumidityBarometerVisibility
11:30 AM
Wed, Sep 2
50 °FPartly sunny.12 mph71%29.86 "HgN/A
11:00 AM50 °FScattered clouds.13 mph67%29.86 "HgN/A
10:30 AM48 °FPassing clouds.9 mph71%29.89 "HgN/A
10:00 AM46 °FPassing clouds.9 mph82%29.89 "HgN/A
9:30 AM45 °FPassing clouds.13 mph87%29.89 "HgN/A
9:00 AM43 °FPassing clouds.8 mph87%29.89 "HgN/A
8:30 AM43 °FScattered clouds.8 mph93%29.92 "HgN/A
7:30 AM39 °FPartly sunny.8 mph100%29.92 "HgN/A
7:00 AM39 °FFog.7 mph100%29.89 "Hg1 mi
6:00 AM39 °FPartly sunny.10 mph100%29.89 "HgN/A
5:30 AM41 °FPassing clouds.7 mph93%29.89 "HgN/A
5:00 AM39 °FPassing clouds.8 mph93%29.92 "HgN/A
4:00 AM37 °FPassing clouds.7 mph100%29.89 "HgN/A
3:30 AM37 °FPassing clouds.5 mph100%29.89 "HgN/A
3:00 AM39 °FPassing clouds.6 mph93%29.92 "HgN/A
2:30 AM39 °FClear.5 mph93%29.92 "Hg10 mi
2:00 AM39 °FPassing clouds.5 mph93%29.95 "HgN/A
1:00 AM39 °FPassing clouds.5 mph93%29.95 "HgN/A
12:30 AM39 °FPassing clouds.5 mph93%29.95 "HgN/A
12:00 AM39 °FPassing clouds.3 mph100%29.95 "HgN/A
11:30 PM
Tue, Sep 1
41 °FPassing clouds.7 mph93%29.95 "HgN/A
11:00 PM41 °FPassing clouds.6 mph93%29.95 "HgN/A
10:30 PM41 °FPassing clouds.8 mph100%29.95 "HgN/A
10:00 PM39 °FLight fog.6 mph93%29.95 "HgN/A
9:00 PM39 °FLight fog.No wind93%29.95 "HgN/A
8:30 PM41 °FPassing clouds.1 mph93%29.95 "HgN/A
8:00 PM43 °FPassing clouds.3 mph87%29.95 "HgN/A
7:00 PM45 °FPassing clouds.5 mph87%29.92 "HgN/A
6:30 PM46 °FPassing clouds.5 mph87%29.92 "HgN/A
6:00 PM46 °FPassing clouds.5 mph87%29.92 "HgN/A
5:30 PM48 °FPassing clouds.6 mph82%29.92 "HgN/A
5:00 PM50 °FPassing clouds.7 mph76%29.92 "HgN/A
4:30 PM50 °FPassing clouds.8 mph76%29.92 "HgN/A
4:00 PM52 °FPassing clouds.8 mph72%29.92 "HgN/A
3:30 PM50 °FPassing clouds.8 mph71%29.95 "HgN/A
3:00 PM50 °FPassing clouds.7 mph76%29.95 "HgN/A
1:30 PM52 °FScattered clouds.5 mph67%29.95 "HgN/A
12:30 PM50 °FPartly sunny.5 mph76%29.98 "HgN/A
12:00 PM50 °FPartly sunny.7 mph76%29.98 "HgN/A
Weather by CustomWeather, © 2015

See weather overviewHow to use our weather pages